Regional Weather Roundup
Issued by NWS

Home | Current Version | Previous Version | Graphics & Text | Print | Product List | Glossary On
Versions: 1 2 3 4 5 6 7 8 9 10 11 12 13 14 15 16 17 18 19 20 21 22 23 24 25 26 27 28 29 30 31 32 33 34 35 36 37 38 39 40 41 42 43 44 45 46 47 48 49 50
220
ASUS44 KMEG 240700
RWRTN
TENNESSEE HOURLY STATE WEATHER ROUNDUP
NATIONAL WEATHER SERVICE MEMPHIS TN
200 AM CDT MON APR 24 2017

TNZ002-004-019-021-049-052-054-088>092-240800-
WEST TENNESSEE

CITY           SKY/WX    TMP DP  RH WIND       PRES   REMARKS
MEMPHIS INTL   CLEAR     50  47  89 CALM      29.87F
NWS MEMPHIS      N/A     48 N/A N/A MISG        N/A
JACKSON        RAIN      52  50  93 N5        29.87F
DYERSBURG      CLEAR     48  48 100 CALM      29.89F FOG
PARIS          CLEAR     46  45  93 CALM      29.86F
$$

TNZ008-025-027-028-033-062-065-066-240800-
NORTH MIDDLE TENNESSEE

CITY           SKY/WX    TMP DP  RH WIND       PRES   REMARKS
NASHVILLE      CLOUDY    54  51  90 N6        29.83F
CLARKSVILLE    CLOUDY    51  48  89 N6        29.84F
SMYRNA         LGT RAIN  54  52  93 NE6       29.83F
CROSSVILLE     CLOUDY    51  50  96 NE5       29.82S FOG
$$

TNZ061-075-076-078-094-096-097-240800-
SOUTH MIDDLE TENNESSEE

CITY           SKY/WX    TMP DP  RH WIND       PRES   REMARKS
TULLAHOMA      CLOUDY    52  52 100 CALM      29.80F
WINCHESTER     CLOUDY    52  52 100 CALM      29.80F
COLUMBIA       CLOUDY   N/A N/A N/A NE3       29.80F
SHELBYVILLE    CLOUDY    54  54 100 N5        29.81F
$$

TNZ017-018-042-046-047-240800-
NORTHEAST TENNESSEE

CITY           SKY/WX    TMP DP  RH WIND       PRES   REMARKS
TRI CITIES     CLOUDY    48  46  93 NE6       29.82F
$$

TNZ012-013-036-069-073-074-240800-
CENTRAL EAST TENNESSEE

CITY           SKY/WX    TMP DP  RH WIND       PRES   REMARKS
KNOXVILLE      CLOUDY    53  50  89 N7        29.79F
OAK RIDGE      CLOUDY    54  50  86 CALM      29.82S
GATLINBURG     CLEAR     50  48  93 CALM      29.79F
$$

TNZ083-085-099-240800-
SOUTHEAST TENNESSEE

CITY           SKY/WX    TMP DP  RH WIND       PRES   REMARKS
CHATTANOOGA    CLOUDY    56  54  93 N3        29.78F
$$

SKY/WX REPORTED AS FAIR MEANS FEW OR NO CLOUDS BELOW
12 THOUSAND FEET.





USA.gov is the U.S. government's official web portal to all federal, state and local government web resources and services.